DAL1451 KLAX-KMSY

Flight info

Callsign DAL1451
Flight time N/A
Altitude 37000
Route DOTSS2 CNERY BLH SALOM EWM SJT GRK CLL LCH AWDAD1
Aircraft B739/M-SDE2E3FGHIRWXY/LB1

Departure

Time 2026-05-07 17:21
Airport Los Angeles International Airport (KLAX)

Arrival

Time N/A
Airport Louis Armstrong New Orleans International Airport (KMSY)
Time Latitude Longitude Altitude Speed Heading
2026-05-07 16:54 33.94633 -118.40838 123 ft 0 kts 96°
2026-05-07 17:07 33.94633 -118.40839 123 ft 1 kts 96°
2026-05-07 17:07 33.94634 -118.40846 123 ft 2 kts 94°
2026-05-07 17:07 33.94635 -118.40853 123 ft 1 kts 95°
2026-05-07 17:08 33.94633 -118.40871 123 ft 2 kts 68°
2026-05-07 17:08 33.94626 -118.40886 123 ft 2 kts 45°
2026-05-07 17:08 33.94613 -118.40897 123 ft 2 kts 20°
2026-05-07 17:08 33.94599 -118.40900 123 ft 1 kts 358°
2026-05-07 17:09 33.94593 -118.40899 123 ft 1 kts 352°
2026-05-07 17:09 33.94591 -118.40898 123 ft 0 kts 353°
2026-05-07 17:16 33.94598 -118.40900 123 ft 2 kts 353°
2026-05-07 17:16 33.94620 -118.40903 123 ft 3 kts 353°
2026-05-07 17:16 33.94653 -118.40907 123 ft 8 kts 354°
2026-05-07 17:16 33.94730 -118.40913 123 ft 12 kts 14°
2026-05-07 17:17 33.94814 -118.40876 123 ft 13 kts 34°
2026-05-07 17:17 33.94848 -118.40772 123 ft 14 kts 81°
2026-05-07 17:17 33.94861 -118.40651 122 ft 15 kts 83°
2026-05-07 17:17 33.94873 -118.40514 122 ft 17 kts 84°
2026-05-07 17:18 33.94888 -118.40366 120 ft 18 kts 83°
2026-05-07 17:18 33.94906 -118.40201 119 ft 20 kts 83°
2026-05-07 17:18 33.94922 -118.40028 118 ft 18 kts 84°
2026-05-07 17:18 33.94949 -118.39938 117 ft 0 kts 46°
2026-05-07 17:19 33.94949 -118.39937 117 ft 0 kts 46°
2026-05-07 17:19 33.94978 -118.39917 117 ft 9 kts 13°
2026-05-07 17:20 33.95039 -118.39955 117 ft 10 kts 282°
2026-05-07 17:20 33.95033 -118.40049 118 ft 18 kts 263°
2026-05-07 17:20 33.94993 -118.40438 121 ft 79 kts 263°
2026-05-07 17:20 33.94899 -118.41346 124 ft 137 kts 263°
2026-05-07 17:21 33.94761 -118.42680 215 ft 175 kts 263°
2026-05-07 17:21 33.94628 -118.43966 630 ft 146 kts 263°
2026-05-07 17:21 33.94492 -118.45245 935 ft 159 kts 263°
2026-05-07 17:21 33.94370 -118.46639 1349 ft 174 kts 266°
2026-05-07 17:22 33.94312 -118.48132 1799 ft 186 kts 269°
2026-05-07 17:22 33.94273 -118.49746 2183 ft 199 kts 269°
2026-05-07 17:22 33.94199 -118.51482 2544 ft 216 kts 266°
2026-05-07 17:22 33.94054 -118.53333 2913 ft 232 kts 263°
2026-05-07 17:23 33.93447 -118.55181 3379 ft 246 kts 232°
2026-05-07 17:23 33.92040 -118.56319 4037 ft 250 kts 198°
2026-05-07 17:23 33.90310 -118.56483 4701 ft 251 kts 173°
2026-05-07 17:23 33.88589 -118.56136 5366 ft 253 kts 169°
2026-05-07 17:24 33.86862 -118.55750 6023 ft 254 kts 169°
2026-05-07 17:24 33.85130 -118.55372 6668 ft 256 kts 169°
2026-05-07 17:24 33.83371 -118.54995 7269 ft 259 kts 169°
2026-05-07 17:24 33.81599 -118.54617 7863 ft 262 kts 169°
2026-05-07 17:25 33.79784 -118.54230 8426 ft 266 kts 168°
2026-05-07 17:25 33.77958 -118.53841 8992 ft 269 kts 168°
2026-05-07 17:25 33.76099 -118.53445 9551 ft 273 kts 168°
2026-05-07 17:25 33.74234 -118.53049 10105 ft 276 kts 168°
2026-05-07 17:26 33.72329 -118.52560 10609 ft 281 kts 161°
2026-05-07 17:26 33.70542 -118.51519 10917 ft 291 kts 139°
2026-05-07 17:26 33.69189 -118.49693 11221 ft 301 kts 118°
2026-05-07 17:26 33.68306 -118.47382 11534 ft 313 kts 108°
2026-05-07 17:27 33.67553 -118.44868 11836 ft 327 kts 107°
2026-05-07 17:27 33.66793 -118.42245 12125 ft 342 kts 107°
2026-05-07 17:27 33.65995 -118.39499 12385 ft 357 kts 107°
2026-05-07 17:27 33.65156 -118.36638 12627 ft 372 kts 107°
2026-05-07 17:28 33.64461 -118.33599 12890 ft 383 kts 98°
2026-05-07 17:28 33.64205 -118.30405 13523 ft 383 kts 90°
2026-05-07 17:28 33.64194 -118.27235 14111 ft 385 kts 87°
2026-05-07 17:28 33.64275 -118.23991 14717 ft 388 kts 86°
2026-05-07 17:29 33.64363 -118.20741 15320 ft 392 kts 86°
2026-05-07 17:29 33.64428 -118.17464 15894 ft 396 kts 86°
2026-05-07 17:29 33.64463 -118.14150 16491 ft 399 kts 87°
2026-05-07 17:29 33.64476 -118.10814 17063 ft 403 kts 87°
2026-05-07 17:30 33.64478 -118.07435 17640 ft 405 kts 87°
2026-05-07 17:30 33.64473 -118.04094 18167 ft 409 kts 87°
2026-05-07 17:30 33.64467 -118.00662 18693 ft 413 kts 87°
2026-05-07 17:30 33.64458 -117.97208 19235 ft 416 kts 87°
2026-05-07 17:31 33.64450 -117.93700 19752 ft 419 kts 87°
2026-05-07 17:31 33.64441 -117.90232 20228 ft 423 kts 87°
2026-05-07 17:31 33.64431 -117.86694 20736 ft 426 kts 88°
2026-05-07 17:31 33.64343 -117.83106 21216 ft 431 kts 90°
2026-05-07 17:32 33.64056 -117.79542 21676 ft 436 kts 95°
2026-05-07 17:32 33.63496 -117.75957 22155 ft 441 kts 99°
2026-05-07 17:32 33.62745 -117.72370 22597 ft 445 kts 102°
2026-05-07 17:32 33.61894 -117.68787 23070 ft 448 kts 103°
2026-05-07 17:33 33.60993 -117.65175 23500 ft 452 kts 103°
2026-05-07 17:33 33.60085 -117.61592 23942 ft 455 kts 103°
2026-05-07 17:33 33.59157 -117.57940 24365 ft 458 kts 103°
2026-05-07 17:33 33.58231 -117.54281 24789 ft 462 kts 103°
2026-05-07 17:34 33.57306 -117.50616 25220 ft 465 kts 103°
2026-05-07 17:34 33.56369 -117.46891 25641 ft 468 kts 103°
2026-05-07 17:34 33.55429 -117.43139 26035 ft 471 kts 103°
2026-05-07 17:34 33.54489 -117.39387 26405 ft 475 kts 103°
2026-05-07 17:35 33.53537 -117.35577 26807 ft 477 kts 103°
2026-05-07 17:35 33.52580 -117.31734 27348 ft 476 kts 103°
2026-05-07 17:35 33.51726 -117.27948 28018 ft 471 kts 101°
2026-05-07 17:35 33.51065 -117.24144 28658 ft 465 kts 96°
2026-05-07 17:36 33.50647 -117.20331 29219 ft 461 kts 92°
2026-05-07 17:36 33.50417 -117.16532 29695 ft 460 kts 90°
2026-05-07 17:36 33.50287 -117.12704 30125 ft 460 kts 88°
2026-05-07 17:36 33.50212 -117.08887 30577 ft 459 kts 88°
2026-05-07 17:37 33.50163 -117.05094 31091 ft 456 kts 87°
2026-05-07 17:37 33.50124 -117.01291 31567 ft 455 kts 87°
2026-05-07 17:37 33.50086 -116.97555 32025 ft 453 kts 86°
2026-05-07 17:37 33.50045 -116.93781 32415 ft 454 kts 87°
2026-05-07 17:38 33.50000 -116.89993 32818 ft 453 kts 86°
2026-05-07 17:38 33.49950 -116.86249 33288 ft 451 kts 86°
2026-05-07 17:38 33.49897 -116.82466 33708 ft 449 kts 87°
2026-05-07 17:38 33.49841 -116.78745 34093 ft 449 kts 86°
2026-05-07 17:39 33.49782 -116.74944 34382 ft 450 kts 86°
2026-05-07 17:39 33.49722 -116.71145 34668 ft 451 kts 86°
2026-05-07 17:39 33.49661 -116.67389 35069 ft 449 kts 86°
2026-05-07 17:39 33.49598 -116.63603 35165 ft 452 kts 86°
2026-05-07 17:40 33.49469 -116.56113 35181 ft 448 kts 87°
2026-05-07 17:40 33.49332 -116.48674 35176 ft 448 kts 86°
2026-05-07 17:41 33.49194 -116.41188 35155 ft 448 kts 86°
2026-05-07 17:41 33.49074 -116.33739 35131 ft 447 kts 86°
2026-05-07 17:42 33.48967 -116.26317 35093 ft 446 kts 86°
2026-05-07 17:42 33.48854 -116.18842 35055 ft 446 kts 87°
2026-05-07 17:43 33.48736 -116.11454 35030 ft 446 kts 87°
2026-05-07 17:43 33.48941 -116.04045 34995 ft 440 kts 78°
2026-05-07 17:44 33.50347 -115.97010 34961 ft 433 kts 69°
2026-05-07 17:44 33.52319 -115.90224 34972 ft 432 kts 66°
2026-05-07 17:45 33.54392 -115.83435 35001 ft 433 kts 66°
2026-05-07 17:45 33.56402 -115.76716 35037 ft 431 kts 67°
2026-05-07 17:46 33.58406 -115.69895 35055 ft 432 kts 67°